Content
SEND FEEDBACK

Daily
Averages
Monthly
Summary
United States of America

RANCHO SAN DIEGO, CALIFORNIA


Home > North America > United States > California
Elevation: 540 feet     Latitude: 32 47N     Longitude: 116 56W

WEATHER
 
SELECT A DAY
Number of Records: 106,688;   Date Range: 1/1/95 - 7/26/14
 
SHARE

PRINT THIS DATA

[ ← Previous Day ]
WEATHER ALMANAC - JANUARY 30, 2013
[ Next Day → ]
[ °C ]   °F
Weather ElementAverageHighLow
Temperature44.4 °F69.8 °F (12:47 pm)37.4 °F (4:15 am)
Dewpoint39.1 °F42.8 °F (12:35 am)37.4 °F (4:15 am)
Humidity84.4 %100 % (12:35 am)33 % (12:47 pm)
Barometer30.27 in30.34 in (7:47 am)30.24 in (12:35 am)
Wind Speed1.1 mph8.1 mph (12:47 pm)
Weather ElementAverage
Visibility11.7 mi
Wind DirectionENE (73.9 °)

Weather ElementTotal
Precipitation---
Heating Degree Days11.4 (Base 65)
Growing Degree Days3.6 (Base 50)
Averaged from 28 records on January 30, 2013
WEATHER CONDITIONS BREAKOUT
WIND DIRECTION BREAKOUT
WEATHER BY HOUR - JANUARY 30, 2013
[ °C ]   °F
Local TimeTemperatureDewpointHumidityBarometerVisibilityWind DirectionWind SpeedGust SpeedPrecipitationEventsConditions
12:35 AM42.8 °F42.8 °F100 %30.24 in10.0 miCalmClear
12:55 AM41.0 °F41.0 °F100 %30.24 in10.0 miCalmClear
1:35 AM41.0 °F41.0 °F100 %30.25 in10.0 miCalmClear
1:55 AM41.0 °F41.0 °F100 %30.25 in10.0 miNorthClear
2:15 AM39.2 °F39.2 °F100 %30.26 in10.0 miCalmClear
2:35 AM39.2 °F39.2 °F100 %30.26 in10.0 miCalmClear
2:55 AM39.2 °F39.2 °F100 %30.26 in10.0 miCalmClear
3:15 AM39.2 °F39.2 °F100 %30.27 in10.0 miNW (320°)3.5 mphClear
3:35 AM39.2 °F39.2 °F100 %30.27 in10.0 miWNW (290°)3.5 mphClear
4:15 AM37.4 °F37.4 °F100 %30.27 in10.0 miWNW (290°)3.5 mphClear
4:35 AM37.4 °F37.4 °F100 %30.28 in10.0 miCalmClear
4:55 AM39.2 °F39.2 °F100 %30.28 in10.0 miCalmClear
5:15 AM37.4 °F37.4 °F100 %30.29 in10.0 miCalmClear
6:47 AM37.4 °F37.4 °F100 %30.31 in25.0 miCalmPartly Cloudy
7:47 AM41.0 °F41.0 °F100 %30.34 in25.0 miCalmPartly Cloudy
12:47 PM69.8 °F39.2 °F33 %30.25 in25.0 miWest (270°)8.1 mphClear
8:15 PM51.8 °F37.4 °F58 %30.26 in10.0 miCalmClear
8:35 PM51.8 °F37.4 °F58 %30.27 in10.0 miCalmClear
8:47 PM51.8 °F37.4 °F58 %30.27 in12.0 miCalmClear
8:55 PM50.0 °F37.4 °F62 %30.27 in10.0 miCalmClear
9:15 PM50.0 °F39.2 °F66 %30.27 in10.0 miCalmClear
9:35 PM48.2 °F39.2 °F71 %30.27 in10.0 miWNW (290°)3.5 mphClear
9:55 PM48.2 °F39.2 °F71 %30.27 in10.0 miWNW (300°)3.5 mphClear
10:15 PM46.4 °F39.2 °F76 %30.27 in10.0 miNW (310°)3.5 mphClear
10:55 PM46.4 °F39.2 °F76 %30.26 in10.0 miCalmClear
11:15 PM46.4 °F39.2 °F76 %30.27 in10.0 miCalmClear
11:35 PM46.4 °F39.2 °F76 %30.27 in10.0 miCalmClear
11:55 PM44.6 °F39.2 °F81 %30.26 in10.0 miCalmClear
Hourly data recorded from KSEE, located miles away from Rancho San Diego, California







STORIES FROM OUR PARTNERS